P/2019 X1 ( Pruyne )

Japanese version
Home page
Updated on December 20, 2019

---------------------------------------------------------------------

* Profile

Discovery Date December 2, 2019
Magnitude 19.4 mag
Discoverer Theodore A. Pruyne (Mt. Lemmon Survey)

* Orbital Elements

T 2019 July 30.29779 TT                                 Rudenko                 
q   4.3258180            (2000.0)            P               Q                  
n   0.06461257     Peri.   37.79926     +0.14941549     -0.98095937             
a   6.1507022      Node    44.00415     +0.85806624     +0.06628804             
e   0.2966953      Incl.   10.28791     +0.49132203     +0.18255032             
P  15.3                                                                         
From 74 observations 2019 Nov. 29-Dec. 10.                                      

* Magnitudes Graph

        m1 = 10.0 + 5 log d + 10.0 log r

---------------------------------------------------------------------

The orbital elements are published on M.P.E.C. 2019-X103.
The magnitudes graphs are made with Comet for Windows.

---------------------------------------------------------------------

Copyright(C) Seiichi Yoshida (comet@aerith.net). All rights reserved.